Time,TemperatureF,DewpointF,PressureIn,WindDirection,WindDirectionDegrees,WindSpeedMPH,WindSpeedGustMPH,Humidity,HourlyPrecipIn,Conditions,Clouds,dailyrainin,SoftwareType,DateUTC
2013-02-03 00:01:00,41.0,40.0,30.30,ESE,116,0.0,0.0,95,0.00,,,0.00,,2013-02-03 08:01:00,
2013-02-03 00:11:00,41.0,40.0,30.30,ESE,116,0.0,0.0,95,0.00,,,0.00,,2013-02-03 08:11:00,
2013-02-03 00:22:00,41.0,40.0,30.30,ESE,116,0.0,0.0,95,0.00,,,0.00,,2013-02-03 08:22:00,
2013-02-03 00:32:00,41.0,40.0,30.30,ESE,116,0.0,0.0,95,0.00,,,0.00,,2013-02-03 08:32:00,
2013-02-03 00:41:00,41.0,40.0,30.30,ESE,116,0.0,0.0,95,0.00,,,0.00,,2013-02-03 08:41:00,
2013-02-03 00:52:00,41.0,40.0,30.30,ESE,116,0.0,-999.0,95,-99.99,,,-99.99,,2013-02-03 08:52:00,
2013-02-03 01:02:00,41.0,40.0,30.30,ESE,116,0.0,-999.0,95,-99.99,,,-99.99,,2013-02-03 09:02:00,
2013-02-03 01:11:00,41.0,40.0,30.30,ESE,116,0.0,-999.0,95,-99.99,,,-99.99,,2013-02-03 09:11:00,
2013-02-03 01:21:00,41.0,40.0,30.30,ESE,116,0.0,-999.0,95,-99.99,,,-99.99,,2013-02-03 09:21:00,
2013-02-03 01:31:00,40.0,39.0,30.30,ESE,116,0.0,-999.0,95,-99.99,,,-99.99,,2013-02-03 09:31:00,
2013-02-03 01:41:00,40.0,39.0,30.30,ESE,116,0.0,-999.0,95,-99.99,,,-99.99,,2013-02-03 09:41:00,
2013-02-03 01:52:00,40.0,39.0,30.30,ESE,116,0.0,-999.0,95,-99.99,,,-99.99,,2013-02-03 09:52:00,
2013-02-03 02:01:00,40.0,39.0,30.30,ESE,116,0.0,-999.0,95,-99.99,,,-99.99,,2013-02-03 10:01:00,
2013-02-03 02:11:00,40.0,39.0,30.30,ESE,116,0.0,-999.0,95,-99.99,,,-99.99,,2013-02-03 10:11:00,
2013-02-03 02:21:00,40.0,39.0,30.30,ESE,116,0.0,0.0,96,0.00,,,0.00,,2013-02-03 10:21:00,
2013-02-03 02:31:00,40.0,39.0,30.30,East,101,0.0,2.0,96,0.00,,,0.00,,2013-02-03 10:31:00,
2013-02-03 02:41:00,40.0,39.0,30.30,East,101,0.0,2.0,96,0.00,,,0.00,,2013-02-03 10:41:00,
2013-02-03 02:52:00,40.0,39.0,30.30,East,101,0.0,0.0,96,0.00,,,0.00,,2013-02-03 10:52:00,
2013-02-03 03:01:00,40.0,39.0,30.30,East,101,0.0,1.0,96,0.00,,,0.00,,2013-02-03 11:01:00,
2013-02-03 03:11:00,40.0,39.0,30.30,East,101,0.0,1.0,96,0.00,,,0.00,,2013-02-03 11:11:00,
2013-02-03 03:22:00,40.0,39.0,30.29,East,101,0.0,1.0,96,0.00,,,0.00,,2013-02-03 11:22:00,
2013-02-03 03:31:00,40.0,39.0,30.29,East,101,0.0,1.0,96,0.00,,,0.00,,2013-02-03 11:31:00,
2013-02-03 03:41:00,40.0,39.0,30.29,East,101,0.0,1.0,96,0.00,,,0.00,,2013-02-03 11:41:00,
2013-02-03 03:52:00,40.0,39.0,30.29,NE,46,0.0,2.0,96,0.00,,,0.00,,2013-02-03 11:52:00,
2013-02-03 04:02:00,40.0,39.0,30.29,NE,45,0.0,3.0,96,0.00,,,0.00,,2013-02-03 12:02:00,
2013-02-03 04:11:00,40.0,39.0,30.29,NE,45,0.0,3.0,96,0.00,,,0.00,,2013-02-03 12:11:00,
2013-02-03 04:21:00,40.0,39.0,30.28,NE,41,0.0,2.0,96,0.00,,,0.00,,2013-02-03 12:21:00,
2013-02-03 04:32:00,40.0,39.0,30.28,NE,41,0.0,2.0,96,0.00,,,0.00,,2013-02-03 12:32:00,
2013-02-03 04:42:00,40.0,39.0,30.28,NE,41,0.0,2.0,96,0.00,,,0.00,,2013-02-03 12:42:00,
2013-02-03 04:53:00,40.0,39.0,30.28,NE,41,0.0,3.0,96,0.00,,,0.00,,2013-02-03 12:53:00,
2013-02-03 05:02:00,40.0,39.0,30.28,NE,39,0.0,3.0,96,0.00,,,0.00,,2013-02-03 13:02:00,
2013-02-03 05:11:00,40.0,39.0,30.28,NE,36,0.0,3.0,96,0.00,,,0.00,,2013-02-03 13:11:00,
2013-02-03 05:21:00,40.0,39.0,30.28,NE,36,0.0,3.0,96,0.00,,,0.00,,2013-02-03 13:21:00,
2013-02-03 05:31:00,40.0,39.0,30.28,NE,36,0.0,2.0,96,0.00,,,0.00,,2013-02-03 13:31:00,
2013-02-03 05:41:00,40.0,39.0,30.28,NE,36,0.0,2.0,96,0.00,,,0.00,,2013-02-03 13:41:00,
2013-02-03 05:52:00,40.0,39.0,30.27,NE,34,0.0,3.0,96,0.00,,,0.00,,2013-02-03 13:52:00,
2013-02-03 06:01:00,40.0,39.0,30.27,NE,34,0.0,2.0,96,0.00,,,0.00,,2013-02-03 14:01:00,
2013-02-03 06:11:00,40.0,39.0,30.27,NE,34,0.0,2.0,96,0.00,,,0.00,,2013-02-03 14:11:00,
2013-02-03 06:21:00,40.0,39.0,30.27,NE,34,0.0,2.0,96,0.00,,,0.00,,2013-02-03 14:21:00,
2013-02-03 06:31:00,40.0,39.0,30.27,NE,34,0.0,1.0,96,0.00,,,0.00,,2013-02-03 14:31:00,
2013-02-03 06:42:00,40.0,39.0,30.27,NE,34,0.0,1.0,96,0.00,,,0.00,,2013-02-03 14:42:00,
2013-02-03 06:52:00,40.0,39.0,30.28,NE,34,0.0,0.0,96,0.00,,,0.00,,2013-02-03 14:52:00,
2013-02-03 07:02:00,40.0,39.0,30.28,NE,34,0.0,1.0,96,0.00,,,0.00,,2013-02-03 15:02:00,
2013-02-03 07:11:00,40.0,39.0,30.28,NE,34,0.0,1.0,96,0.00,,,0.00,,2013-02-03 15:11:00,
2013-02-03 07:21:00,40.0,39.0,30.28,NE,34,0.0,2.0,97,0.00,,,0.00,,2013-02-03 15:21:00,
2013-02-03 07:32:00,40.0,39.0,30.28,NE,34,1.0,2.0,97,0.00,,,0.00,,2013-02-03 15:32:00,
2013-02-03 07:41:00,40.0,39.0,30.28,NE,34,1.0,2.0,97,0.00,,,0.00,,2013-02-03 15:41:00,
2013-02-03 07:52:00,40.0,39.0,30.29,NE,34,0.0,3.0,97,0.00,,,0.00,,2013-02-03 15:52:00,
2013-02-03 08:02:00,40.0,39.0,30.29,NE,34,0.0,1.0,97,0.00,,,0.00,,2013-02-03 16:02:00,
2013-02-03 08:11:00,40.0,39.0,30.29,NE,34,0.0,1.0,97,0.00,,,0.00,,2013-02-03 16:11:00,
2013-02-03 08:21:00,40.0,39.0,30.30,NE,34,0.0,3.0,97,0.00,,,0.00,,2013-02-03 16:21:00,
2013-02-03 08:31:00,41.0,40.0,30.30,NE,34,0.0,2.0,97,0.00,,,0.00,,2013-02-03 16:31:00,
2013-02-03 08:41:00,41.0,40.0,30.30,NE,34,0.0,2.0,97,0.00,,,0.00,,2013-02-03 16:41:00,
2013-02-03 08:52:00,41.0,40.0,30.30,NE,34,1.0,3.0,97,0.00,,,0.00,,2013-02-03 16:52:00,
2013-02-03 09:01:00,41.0,40.0,30.30,NE,34,0.0,3.0,97,0.00,,,0.00,,2013-02-03 17:01:00,
2013-02-03 09:11:00,41.0,40.0,30.30,NE,34,0.0,3.0,97,0.00,,,0.00,,2013-02-03 17:11:00,
2013-02-03 09:21:00,41.0,40.0,30.31,NNE,33,0.0,3.0,97,0.00,,,0.00,,2013-02-03 17:21:00,
2013-02-03 09:31:00,41.0,40.0,30.31,NNE,32,0.0,3.0,97,0.00,,,0.00,,2013-02-03 17:31:00,
2013-02-03 09:41:00,41.0,40.0,30.31,NNE,32,0.0,3.0,97,0.00,,,0.00,,2013-02-03 17:41:00,
2013-02-03 09:52:00,42.0,41.0,30.30,NNE,26,1.0,4.0,97,0.00,,,0.00,,2013-02-03 17:52:00,
2013-02-03 10:01:00,42.0,41.0,30.30,NNE,26,2.0,3.0,97,0.00,,,0.00,,2013-02-03 18:01:00,
2013-02-03 10:11:00,42.0,41.0,30.30,NNE,26,2.0,3.0,97,0.00,,,0.00,,2013-02-03 18:11:00,
2013-02-03 10:22:00,44.0,43.0,30.28,NNE,26,0.0,1.0,97,0.00,,,0.00,,2013-02-03 18:22:00,
2013-02-03 10:31:00,44.0,43.0,30.28,NNE,26,0.0,0.0,96,0.00,,,0.00,,2013-02-03 18:31:00,
2013-02-03 10:41:00,44.0,43.0,30.28,NNE,26,0.0,0.0,96,0.00,,,0.00,,2013-02-03 18:41:00,
2013-02-03 10:52:00,48.0,45.0,30.29,North,5,0.0,2.0,88,0.00,,,0.00,,2013-02-03 18:52:00,
2013-02-03 11:01:00,49.0,45.0,30.29,North,5,0.0,0.0,86,0.00,,,0.00,,2013-02-03 19:01:00,
2013-02-03 11:11:00,49.0,45.0,30.29,North,5,0.0,0.0,86,0.00,,,0.00,,2013-02-03 19:11:00,
2013-02-03 11:21:00,52.0,45.0,30.30,North,360,1.0,2.0,76,0.00,,,0.00,,2013-02-03 19:21:00,
2013-02-03 11:31:00,51.0,45.0,30.30,North,360,1.0,2.0,79,0.00,,,0.00,,2013-02-03 19:31:00,
2013-02-03 11:41:00,51.0,45.0,30.30,North,360,1.0,2.0,79,0.00,,,0.00,,2013-02-03 19:41:00,
2013-02-03 11:52:00,51.0,45.0,30.30,NNE,15,0.0,2.0,79,0.00,,,0.00,,2013-02-03 19:52:00,
2013-02-03 12:01:00,51.0,44.0,30.30,NNE,15,0.0,3.0,78,0.00,,,0.00,,2013-02-03 20:01:00,
2013-02-03 12:11:00,51.0,44.0,30.30,NNE,15,0.0,3.0,78,0.00,,,0.00,,2013-02-03 20:11:00,
2013-02-03 12:21:00,52.0,45.0,30.30,NNE,15,0.0,2.0,77,0.00,,,0.00,,2013-02-03 20:21:00,
2013-02-03 12:31:00,52.0,45.0,30.30,NNE,17,0.0,3.0,76,0.00,,,0.00,,2013-02-03 20:31:00,
2013-02-03 12:42:00,52.0,45.0,30.30,NNE,17,0.0,3.0,76,0.00,,,0.00,,2013-02-03 20:42:00,
2013-02-03 12:52:00,53.0,46.0,30.29,NNE,17,0.0,1.0,76,0.00,,,0.00,,2013-02-03 20:52:00,
2013-02-03 13:02:00,53.0,45.0,30.29,NNE,17,0.0,1.0,75,0.00,,,0.00,,2013-02-03 21:02:00,
2013-02-03 13:11:00,53.0,45.0,30.29,NNE,17,0.0,1.0,75,0.00,,,0.00,,2013-02-03 21:11:00,
2013-02-03 13:21:00,53.0,46.0,30.28,NE,41,0.0,3.0,76,0.00,,,0.00,,2013-02-03 21:21:00,
2013-02-03 13:31:00,53.0,45.0,30.28,ESE,104,1.0,3.0,74,0.00,,,0.00,,2013-02-03 21:31:00,
2013-02-03 13:42:00,53.0,45.0,30.28,ESE,104,1.0,3.0,74,0.00,,,0.00,,2013-02-03 21:42:00,
2013-02-03 13:52:00,53.0,45.0,30.27,NNE,32,0.0,4.0,75,0.00,,,0.00,,2013-02-03 21:52:00,
2013-02-03 14:01:00,54.0,46.0,30.27,NNE,32,0.0,2.0,74,0.00,,,0.00,,2013-02-03 22:01:00,
2013-02-03 14:11:00,54.0,46.0,30.27,NNE,32,0.0,2.0,74,0.00,,,0.00,,2013-02-03 22:11:00,
2013-02-03 14:21:00,54.0,46.0,30.26,NNE,32,0.0,1.0,74,0.00,,,0.00,,2013-02-03 22:21:00,
2013-02-03 14:31:00,53.0,45.0,30.26,NNE,32,0.0,2.0,75,0.00,,,0.00,,2013-02-03 22:31:00,
2013-02-03 14:41:00,53.0,45.0,30.26,NNE,32,0.0,2.0,75,0.00,,,0.00,,2013-02-03 22:41:00,
2013-02-03 14:51:00,52.0,44.0,30.26,NNE,32,1.0,2.0,75,0.00,,,0.00,,2013-02-03 22:51:00,
2013-02-03 15:01:00,52.0,45.0,30.26,NNE,32,0.0,1.0,76,0.00,,,0.00,,2013-02-03 23:01:00,
2013-02-03 15:11:00,52.0,45.0,30.26,NNE,32,0.0,1.0,76,0.00,,,0.00,,2013-02-03 23:11:00,
2013-02-03 15:21:00,51.0,44.0,30.25,NNE,32,0.0,1.0,78,0.00,,,0.00,,2013-02-03 23:21:00,
2013-02-03 15:32:00,51.0,45.0,30.25,NNE,32,0.0,1.0,79,0.00,,,0.00,,2013-02-03 23:32:00,
2013-02-03 15:41:00,51.0,45.0,30.25,NNE,32,0.0,1.0,79,0.00,,,0.00,,2013-02-03 23:41:00,
2013-02-03 15:52:00,50.0,44.0,30.25,NNE,32,0.0,2.0,80,0.00,,,0.00,,2013-02-03 23:52:00,
2013-02-03 16:01:00,50.0,44.0,30.25,NNE,32,0.0,0.0,81,0.00,,,0.00,,2013-02-04 00:01:00,
2013-02-03 16:11:00,50.0,44.0,30.25,NNE,32,0.0,0.0,81,0.00,,,0.00,,2013-02-04 00:11:00,
2013-02-03 16:21:00,49.0,44.0,30.25,NNE,32,0.0,0.0,82,0.00,,,0.00,,2013-02-04 00:21:00,
2013-02-03 16:31:00,49.0,44.0,30.25,NNE,32,0.0,0.0,84,0.00,,,0.00,,2013-02-04 00:31:00,
2013-02-03 16:41:00,49.0,44.0,30.25,NNE,32,0.0,0.0,84,0.00,,,0.00,,2013-02-04 00:41:00,
2013-02-03 16:51:00,48.0,43.0,30.25,NNE,32,0.0,0.0,84,0.00,,,0.00,,2013-02-04 00:51:00,
2013-02-03 17:01:00,47.0,42.0,30.25,NNE,32,0.0,0.0,84,0.00,,,0.00,,2013-02-04 01:01:00,
2013-02-03 17:11:00,47.0,42.0,30.25,NNE,32,0.0,0.0,84,0.00,,,0.00,,2013-02-04 01:11:00,
2013-02-03 17:21:00,47.0,41.0,30.25,NNE,32,0.0,0.0,80,0.00,,,0.00,,2013-02-04 01:21:00,
2013-02-03 17:31:00,47.0,40.0,30.25,NNE,32,0.0,0.0,76,0.00,,,0.00,,2013-02-04 01:31:00,
2013-02-03 17:41:00,47.0,40.0,30.25,NNE,32,0.0,0.0,76,0.00,,,0.00,,2013-02-04 01:41:00,
2013-02-03 17:52:00,46.0,38.0,30.25,NNE,32,0.0,0.0,74,0.00,,,0.00,,2013-02-04 01:52:00,
2013-02-03 18:01:00,46.0,38.0,30.25,NNE,32,0.0,0.0,74,0.00,,,0.00,,2013-02-04 02:01:00,
2013-02-03 18:11:00,46.0,38.0,30.25,NNE,32,0.0,0.0,74,0.00,,,0.00,,2013-02-04 02:11:00,
2013-02-03 18:21:00,46.0,39.0,30.25,NNE,32,0.0,0.0,77,0.00,,,0.00,,2013-02-04 02:21:00,
2013-02-03 18:31:00,46.0,40.0,30.25,NNE,32,0.0,0.0,78,0.00,,,0.00,,2013-02-04 02:31:00,
2013-02-03 18:41:00,46.0,40.0,30.25,NNE,32,0.0,0.0,78,0.00,,,0.00,,2013-02-04 02:41:00,
2013-02-03 18:52:00,45.0,38.0,30.25,NNE,32,0.0,0.0,77,0.00,,,0.00,,2013-02-04 02:52:00,
2013-02-03 19:01:00,44.0,37.0,30.25,NNE,32,0.0,0.0,76,0.00,,,0.00,,2013-02-04 03:01:00,
2013-02-03 19:11:00,44.0,37.0,30.25,NNE,32,0.0,0.0,76,0.00,,,0.00,,2013-02-04 03:11:00,
2013-02-03 19:21:00,44.0,37.0,30.25,NNE,32,0.0,0.0,76,0.00,,,0.00,,2013-02-04 03:21:00,
2013-02-03 19:31:00,45.0,38.0,30.25,NNE,32,0.0,0.0,77,0.00,,,0.00,,2013-02-04 03:31:00,
2013-02-03 19:41:00,45.0,38.0,30.25,NNE,32,0.0,0.0,77,0.00,,,0.00,,2013-02-04 03:41:00,
2013-02-03 19:51:00,44.0,38.0,30.25,NNE,32,0.0,0.0,79,0.00,,,0.00,,2013-02-04 03:51:00,
2013-02-03 20:01:00,44.0,39.0,30.25,NNE,32,0.0,1.0,83,0.00,,,0.00,,2013-02-04 04:01:00,
2013-02-03 20:11:00,44.0,39.0,30.25,NNE,32,0.0,1.0,83,0.00,,,0.00,,2013-02-04 04:11:00,
2013-02-03 20:21:00,44.0,40.0,30.25,NNE,32,0.0,1.0,85,0.00,,,0.00,,2013-02-04 04:21:00,
2013-02-03 20:31:00,44.0,40.0,30.25,NNE,32,0.0,0.0,87,0.00,,,0.00,,2013-02-04 04:31:00,
2013-02-03 20:41:00,44.0,40.0,30.25,NNE,32,0.0,0.0,87,0.00,,,0.00,,2013-02-04 04:41:00,
2013-02-03 20:52:00,43.0,39.0,30.25,NNE,32,0.0,0.0,85,0.00,,,0.00,,2013-02-04 04:52:00,
2013-02-03 21:03:00,43.0,38.0,30.25,NNE,32,0.0,0.0,82,0.00,,,0.00,,2013-02-04 05:03:00,
2013-02-03 21:11:00,43.0,38.0,30.25,NNE,32,0.0,0.0,82,0.00,,,0.00,,2013-02-04 05:11:00,
2013-02-03 21:21:00,43.0,36.0,30.25,NNE,32,0.0,0.0,77,0.00,,,0.00,,2013-02-04 05:21:00,
2013-02-03 21:33:00,44.0,36.0,30.25,NNE,32,0.0,0.0,73,0.00,,,0.00,,2013-02-04 05:33:00,
2013-02-03 21:41:00,44.0,36.0,30.25,NNE,32,0.0,0.0,73,0.00,,,0.00,,2013-02-04 05:41:00,
2013-02-03 21:52:00,44.0,34.0,30.25,NNE,32,0.0,0.0,68,0.00,,,0.00,,2013-02-04 05:52:00,
2013-02-03 22:01:00,45.0,35.0,30.25,NNE,32,0.0,0.0,67,0.00,,,0.00,,2013-02-04 06:01:00,
2013-02-03 22:11:00,45.0,35.0,30.25,NNE,32,0.0,0.0,67,0.00,,,0.00,,2013-02-04 06:11:00,
2013-02-03 22:21:00,45.0,34.0,30.25,NNE,32,0.0,0.0,65,0.00,,,0.00,,2013-02-04 06:21:00,
2013-02-03 22:31:00,46.0,34.0,30.25,NNE,32,0.0,0.0,62,0.00,,,0.00,,2013-02-04 06:31:00,
2013-02-03 22:41:00,46.0,34.0,30.25,NNE,32,0.0,0.0,62,0.00,,,0.00,,2013-02-04 06:41:00,
2013-02-03 22:52:00,46.0,31.0,30.24,NNE,32,0.0,0.0,56,0.00,,,0.00,,2013-02-04 06:52:00,
2013-02-03 23:01:00,47.0,33.0,30.24,NNE,32,0.0,0.0,57,0.00,,,0.00,,2013-02-04 07:01:00,
2013-02-03 23:11:00,47.0,33.0,30.23,NNE,32,0.0,0.0,58,0.00,,,0.00,,2013-02-04 07:11:00,
2013-02-03 23:21:00,47.0,33.0,30.23,NNE,32,0.0,0.0,58,0.00,,,0.00,,2013-02-04 07:21:00,
2013-02-03 23:31:00,47.0,33.0,30.23,NNE,32,0.0,0.0,58,0.00,,,0.00,,2013-02-04 07:31:00,
2013-02-03 23:41:00,47.0,33.0,30.23,NNE,32,0.0,0.0,58,0.00,,,0.00,,2013-02-04 07:41:00,
2013-02-03 23:52:00,48.0,34.0,30.24,NNE,32,0.0,2.0,57,0.00,,,0.00,,2013-02-04 07:52:00,